Tracking 19832 objects as of 25-Aug-2019
HD Live streaming from Space Station
objects crossing your sky now

FENGYUN 1C DEB

Track FENGYUN 1C DEB now!
10-day predictions


NORAD ID: 30453
Int'l Code: 1999-025AFQ
Perigee: 763.3 km
Apogee: 954.8 km
Inclination: 99.0 °
Period: 102.0 minutes
Semi major axis: 7230 km
RCS: 0.0229 m2 (small)
Launch date: May 10, 1999
Source: People's Republic of China (PRC)
Launch site: Taiyaun Space Center, China (TSC)

Note: This is SATELLITE DEBRIS
aabbcc
Your satellite tracking list
Your tracking list is empty




NASA's NSSDC Master Catalog

Two Line Element Set (TLE):
1 30453U 99025AFQ 19235.62256808  .00000573  00000-0  31057-3 0  9991
2 30453  99.0059 275.3155 0132421 300.2499 182.1064 14.12179108646458
Source of the keplerian elements: AFSPC